Regional Weather Roundup
Issued by NWS

Home | Current Version | Previous Version | Text Only | Print | Product List | Glossary Off
Versions: 1 2 3 4 5 6 7 8 9 10 11 12 13 14 15 16 17 18 19 20 21 22 23 24 25 26 27

000
ASUS45 KCYS 201710
RWRWY

WYOMING REGIONAL WEATHER ROUNDUP
NATIONAL WEATHER SERVICE CHEYENNE WY
1100 AM MDT SUN APR 20 2014

NOTE:  "FAIR" INDICATES FEW OR NO CLOUDS BELOW 12,000 FEET
WITH NO SIGNIFICANT WEATHER AND/OR OBSTRUCTIONS TO VISIBILITY.

WYZ001-201800-
YELLOWSTONE NATIONAL PARK

CITY           SKY/WX    TMP DP  RH WIND       PRES   REMARKS
LK YELLOWSTONE   N/A     44  22  41 W10G17    30.19R
W YELLOWSTONE  NOT AVBL

$$
WYZ002>013-054>058-071-098>099-201800-
NORTHERN WYOMING

CITY           SKY/WX    TMP DP  RH WIND       PRES   REMARKS
JACKSON        SUNNY     52  19  28 SW10G17   30.16R
CODY           MOSUNNY   55  28  35 N10       30.05S
GREYBULL       CLOUDY    57  27  31 NW3       30.02R
WORLAND        CLOUDY    56  31  38 CALM      30.00R
SHERIDAN         N/A     57  30  35 NW9         N/A
BUFFALO        CLOUDY    52  27  38 N32G38    30.05R
GILLETTE       PTSUNNY   61  33  35 NW20      30.02R
HULETT         FAIR      64  37  36 W8        29.99
NEWCASTLE      FAIR      59  36  41 CALM      29.99

$$
WYZ014>020-022>026-101>103-201800-
CENTRAL WYOMING

CITY           SKY/WX    TMP DP  RH WIND       PRES   REMARKS
BIG PINEY      SUNNY     56  26  31 VRB3      30.19R
PINEDALE       SUNNY     52  28  40 NW10      30.20R
DUBOIS         FAIR      54  23  30 NW15      30.11R
LANDER         PTSUNNY   59  34  39 E6        30.06R
RIVERTON       CLOUDY    60  24  25 CALM      30.08R
CASPER         MOSUNNY   65  31  28 SW13      30.05S
DOUGLAS        SUNNY     67  29  24 NW23      30.02S

$$
WYZ021-027>030-104>119-201800-
SOUTHERN WYOMING

CITY           SKY/WX    TMP DP  RH WIND       PRES   REMARKS
EVANSTON       PTSUNNY   57  34  41 W8        30.21R
KEMMERER       SUNNY     54  25  32 NW13      30.22R
FORT BRIDGER   FAIR      60  35  40 NW15G22   30.22S
ROCK SPRINGS   SUNNY     62  31  31 W17       30.17S
DIXON          FAIR      61  36  39 SW8       30.19F
RAWLINS        MOSUNNY   60  29  30 W18G25    30.15R
SARATOGA       FAIR      61  32  33 W13       30.17S
LARAMIE        MOSUNNY   56  28  34 VRB5      30.15S
CHEYENNE       SUNNY     65  31  28 NW17G25   30.09S
TORRINGTON     SUNNY     68  42  38 W7        30.00S
PINE BLUFFS    FAIR      68  32  26 NW18G24   30.05F

$$



USA.gov is the U.S. government's official web portal to all federal, state and local government web resources and services.